Weather History for Alexandria, LA

Change the Weather History Date:

Saturday, October 2, 2010

  Actual Average Record
Temperature  
Mean Temperature 69 °F 72 °F  
Max Temperature 87 °F 83 °F 97 °F (1900)
Min Temperature 50 °F 60 °F 40 °F (1984)
Degree Days  
Heating Degree Days 0 1  
Month to date heating degree days 0 2  
Since 1 July heating degree days 0 5  
Cooling Degree Days 4 7  
Month to date cooling degree days 10 14  
Year to date cooling degree days 2846 2364  
Growing Degree Days 18 (Base 50)    
Moisture  
Dew Point 40 °F    
Average Humidity 42    
Maximum Humidity 71    
Minimum Humidity 13    
Precipitation  
Precipitation 0.00 in 0.22 in 0.92 in (1988)
Month to date precipitation 0.00 0.46  
Year to date precipitation 30.33 39.59  
Snow  
Snow 0.00 in - 0.00 in ()
Month to date snowfall 0.0  
Since 1 July snowfall 0.0  
Since 1 September snowfall 0.0  
Snow Depth 0.00 in    
Sea Level Pressure  
Sea Level Pressure 30.00 in    
Wind  
Wind Speed 5 mph (North)    
Max Wind Speed 17 mph    
Max Gust Speed 24 mph    
Visibility 10 miles    
Events      
T = Trace of Precipitation, MM = Missing Value Source: NWS Daily Summary

Daily Weather History Graph

Daily Weather History Graph

Search for Another Location

Airport:

Trip Planner

Search our weather history database for the weather conditions in past years. The results will help you decide how hot, cold, wet, or windy it might be!

Date:

Astronomy

Oct. 02, 2010 Rise Set
Actual Time 7:04 AM CDT 6:54 PM CDT
Civil Twilight 6:40 AM CDT 7:18 PM CDT
Nautical Twilight 6:12 AM CDT 7:46 PM CDT
Astronomical Twilight 5:44 AM CDT 8:14 PM CDT
Moon 1:13 AM CDT (10/2) 3:20 PM CDT (10/2)
Length of Visible Light 12h 37m
Length of Day
11h 49m
Waning Crescent, 33% of the Moon is Illuminated
Oct 2
Waning Crescent
Oct 7
New
Oct 14
First Quarter
Oct 22
Full
Oct 30
Last Quarter

Hourly Weather History & Observations

Time (CDT) Temp. Dew Point Humidity Pressure Visibility Wind Dir Wind Speed Gust Speed Precip Events Conditions
12:53 AM 55.0 °F 43.0 °F 64% 29.99 in 10.0 mi Calm Calm - N/A   Clear
1:53 AM 55.4 °F 44.6 °F 67% 29.99 in 10.0 mi Calm Calm - N/A   Clear
2:53 AM 59.0 °F 42.1 °F 53% 29.99 in 10.0 mi North 5.8 mph - N/A   Clear
3:53 AM 59.0 °F 41.0 °F 51% 29.99 in 10.0 mi North 6.9 mph - N/A   Clear
4:53 AM 59.0 °F 39.9 °F 49% 30.00 in 10.0 mi North 5.8 mph - N/A   Clear
5:53 AM 55.9 °F 39.9 °F 55% 30.01 in 10.0 mi NNW 3.5 mph - N/A   Clear
6:53 AM 50.0 °F 39.9 °F 68% 30.03 in 10.0 mi Calm Calm - N/A   Clear
7:53 AM 52.0 °F 42.1 °F 69% 30.04 in 10.0 mi Calm Calm - N/A   Clear
8:53 AM 64.0 °F 42.1 °F 45% 30.05 in 10.0 mi North 5.8 mph - N/A   Clear
9:53 AM 71.1 °F 41.0 °F 34% 30.05 in 10.0 mi NNE 9.2 mph - N/A   Clear
10:53 AM 75.9 °F 39.0 °F 26% 30.05 in 10.0 mi Variable 3.5 mph - N/A   Clear
11:53 AM 79.0 °F 37.0 °F 22% 30.04 in 10.0 mi Variable 5.8 mph - N/A   Clear
12:53 PM 82.0 °F 34.0 °F 18% 30.02 in 10.0 mi North 11.5 mph - N/A   Clear
1:53 PM 84.0 °F 32.0 °F 15% 29.99 in 10.0 mi North 6.9 mph - N/A   Clear
2:53 PM 86.0 °F 30.9 °F 14% 29.96 in 10.0 mi NNW 8.1 mph - N/A   Clear
3:53 PM 87.1 °F 32.0 °F 14% 29.95 in 10.0 mi NNE 10.4 mph - N/A   Clear
4:53 PM 84.9 °F 35.1 °F 17% 29.94 in 10.0 mi NNW 10.4 mph - N/A   Clear
5:53 PM 82.9 °F 36.0 °F 19% 29.95 in 10.0 mi North 8.1 mph - N/A   Clear
6:53 PM 77.0 °F 39.0 °F 25% 29.97 in 10.0 mi North 3.5 mph - N/A   Clear
7:53 PM 66.9 °F 45.0 °F 45% 29.99 in 10.0 mi North 3.5 mph - N/A   Clear
8:53 PM 66.0 °F 46.0 °F 48% 30.01 in 10.0 mi North 4.6 mph - N/A   Clear
9:53 PM 61.0 °F 46.9 °F 60% 30.03 in 10.0 mi North 3.5 mph - N/A   Clear
10:53 PM 60.1 °F 45.0 °F 57% 30.03 in 10.0 mi Calm Calm - N/A   Clear
11:53 PM 57.9 °F 45.0 °F 62% 30.03 in 10.0 mi Calm Calm - N/A   Clear